Погода в Великих Цепцевичах

Украина / Ровненская область     51°23′29″N   26°23′44″E
темп.,
°C
ветер,
м/с
пор.,
м/с
влажн.,
%
обл.,
%
осадки,
мм/ч
давл.,
гПа
погр.,
м
23 апреля, пт
пт2300:00+5зюз4886100 0.0 1016242
03:00+3з4108551 0.0 1016223
06:00+1з49860 0.0 1017227
09:00+5з57680 0.0 1018630
12:00+9з6944100 0.0 10172365
15:00+9зсз795397 0.1 10171815
18:00+8з585892 0.4 10171571
21:00+4зсз4107817 1.1 1018277
24 апреля, сб
сб2400:00+2з4118512 0.0 1018302
03:00+1зсз410812 0.0 1019360
06:00−1зсз512785 0.0 1020432
09:00+3зсз610605 0.0 10201074
12:00+7сз71041100 0.1 10202765
15:00+8сз693889 0.1 10202529
18:00+8зсз594147 0.0 10192405
21:00+3зюз36625 0.0 102089
25 апреля, вс
вс2500:00+1зюз337342 0.0 101936
03:00+3юз51173100 0.0 1017398
06:00+1зсз6109299 0.4 1018528
09:00+2сз587348 0.4 1019906
12:00+6сз6748100 0.0 10192058
15:00+6зсз5649100 0.1 10191798
18:00+7зсз474674 0.3 10181818
21:00+3з3876100 0.8 1019181
26 апреля, пн
пн2600:00+1з368256 0.1 1018118
03:00−1з3489100 0.4 101867
06:00−1з3794100 0.3 1017182
09:00+3зсз577171 0.8 1018977
12:00+5зсз6749100 0.1 10172069
15:00+6зсз674987 0.1 10171858
18:00+6з574834 0.1 10151760
21:00+2з357646 0.3 101593
27 апреля, вт
вт2700:00+1зюз36788 0.1 1015102
03:00−1зюз38847 0.1 1015145
06:000з3885100 0.0 1015222
09:00+4зсз586074 0.0 1015989
12:00+7зсз5750100 0.0 10161655
15:00+9зсз464695 0.0 10141841
18:00+10сз245089 0.0 10141581
21:00+5всв337040 0.0 101523